Location: Ellerstadt
(49.4644°N, 8.2615°E)
Time: 04:57:40
(UTC+00:00)

Cosmos 2322 Rocket - Pass Details

Date: 03 March 2021
Orbit: 832 x 852 km, 71.0° (Epoch: 11 April)

Event Time Altitude Azimuth Distance (km) Brightness Sun altitude
Rises 19:07:47 0° 226° (SW) 3,367 5.8 -19.3°
Reaches altitude 10° 19:10:18 10° 232° (SW) 2,438 5.1 -19.7°
Maximum altitude 19:15:42 48° 306° (NW) 1,081 3.1 -20.6°
Drops below altitude 10° 19:21:09 10° 21° (NNE) 2,459 4.6 -21.4°
Sets 19:23:42 0° 27° (NNE) 3,400 5.2 -21.8°
